Content
SEND FEEDBACK

Daily
Averages
Monthly
Summary
United States of America

SOLDIER SUMMIT, UTAH


Home > North America > United States > Utah
Elevation: 7960 feet     Latitude: 39 56N     Longitude: 111 04W

WEATHER
 
SELECT A DAY
Number of Records: 175,208;   Date Range: 1/1/95 - 7/26/14
 
SHARE

PRINT THIS DATA

[ ← Previous Day ]
WEATHER ALMANAC - JANUARY 31, 2013
[ Next Day → ]
[ °C ]   °F
Weather ElementAverageHighLow
Temperature33.4 °F39 °F (3:53 pm)21.9 °F (11:53 pm)
Dewpoint18.5 °F21 °F (1:53 pm)15.1 °F (11:53 pm)
Humidity55.2 %75 % (11:53 pm)45 % (3:53 pm)
Barometer30.32 in30.40 in (9:53 pm)30.22 in (4:53 am)
Wind Speed4.3 mph10.4 mph (6:53 am)
Wind Gust27.6 mph (1:53 am)
Weather ElementAverage
Visibility10 mi
Wind DirectionSSE (147.8 °)

Weather ElementTotal
Precipitation---
Heating Degree Days34.6 (Base 65)
Averaged from 23 records on January 31, 2013
WEATHER CONDITIONS BREAKOUT
WIND DIRECTION BREAKOUT
WEATHER BY HOUR - JANUARY 31, 2013
[ °C ]   °F
Local TimeTemperatureDewpointHumidityBarometerVisibilityWind DirectionWind SpeedGust SpeedPrecipitationEventsConditions
1:53 AM36.0 °F19.0 °F50 %30.24 in10.0 miNW (310°)8.1 mph27.6 mphPartly Cloudy
2:53 AM36.0 °F19.0 °F50 %30.24 in10.0 miVariable3.5 mphClear
3:53 AM37.0 °F18.0 °F46 %30.25 in10.0 miVariable3.5 mphMostly Cloudy
4:53 AM36.0 °F17.1 °F46 %30.22 in10.0 miWNW (300°)9.2 mphClear
5:53 AM33.1 °F17.1 °F52 %30.26 in10.0 miNW (310°)8.1 mphClear
6:53 AM30.9 °F17.1 °F57 %30.29 in10.0 miNW (310°)10.4 mphClear
7:53 AM34.0 °F18.0 °F52 %30.32 in10.0 miWNW (290°)9.2 mphClear
8:53 AM37.0 °F18.0 °F46 %30.32 in10.0 miWNW (300°)5.8 mphClear
9:53 AM30.0 °F17.1 °F59 %30.37 in10.0 miCalmClear
10:53 AM33.1 °F19.0 °F56 %30.37 in10.0 miSE (130°)4.6 mphClear
11:53 AM34.0 °F19.0 °F54 %30.35 in10.0 miSW (220°)3.5 mphClear
12:53 PM37.0 °F19.9 °F50 %30.31 in10.0 miCalmClear
1:53 PM37.0 °F21.0 °F52 %30.31 in10.0 miSE (140°)3.5 mphClear
2:53 PM37.9 °F21.0 °F51 %30.30 in10.0 miEast (80°)3.5 mphClear
3:53 PM39.0 °F19.0 °F45 %30.29 in10.0 miSSE (150°)3.5 mphClear
4:53 PM37.9 °F19.0 °F47 %30.30 in10.0 miCalmClear
5:53 PM35.1 °F19.9 °F54 %30.33 in10.0 miESE (120°)3.5 mphClear
6:53 PM30.9 °F19.0 °F61 %30.37 in10.0 miCalmClear
7:53 PM30.0 °F19.0 °F64 %30.38 in10.0 miNorth (360°)6.9 mphClear
8:53 PM28.9 °F19.0 °F67 %30.36 in10.0 miNorth (360°)3.5 mphClear
9:53 PM26.1 °F18.0 °F71 %30.40 in10.0 miNNE (20°)8.1 mphClear
10:53 PM28.9 °F18.0 °F64 %30.37 in10.0 miCalmClear
11:53 PM21.9 °F15.1 °F75 %30.38 in10.0 miCalmClear
Hourly data recorded from KPUC, located miles away from Soldier Summit, Utah







STORIES FROM OUR PARTNERS